STARLINK-1583, 46064

Orbit data source: Space-Track

STARLINK-1583, 46064 is a payload satellite owned by SpaceX/Seattle (US) in LEO that was launched on Fri, 07 Aug 2020 UTC via an FALCON 9 launch vehicle from the Air Force Eastern Test Range (AFETR). Payload-class satellites include a variety of spacecraft equipped with specific instruments for various scientific and technological missions. These include communications satellites like Starlink; space stations such as the ISS; scientific satellites like the Hubble; Earth observation satellites from companies like Planet Labs, Umbra, and HawkEye 360; GPS; miniature CubeSats for education and research; and military/defense satellites.

Loading next visibility...
Identifier
46064, 2020-055AP
Orbit
LEO
Last TLE update
1 day ago
Origin
Manufacturer
SpaceX/Seattle
Mission
Operational Commercial Communications
Bus & Motor
STARLINK, Unknown motor
Mass
260 kg wet, ~248 kg dry
Launch date (UTC)
2020-08-07 (5 years ago)
Launch vehicle
FALCON 9
Launch site
Air Force Eastern Test Range (AFETR)
Object type
Payload
Rocket body
Debris
Shape & HBR
Box + 1 Pan, 8.86 m
Radar Cross Section
13.562 m², Large (>1 m²)

Expand to show TLE details & history

TLE from 1 day ago
0 STARLINK-1583
1 46064U 20055AP  25128.04752768  .00001335  00000-0  10850-3 0  9998
2 46064  53.0590  48.6891 0002166 106.0270 254.0957 15.06399964262960
Epoch: 2025-05-08T01:08Z
Definitive object data (Epoch: 2025-05-08T01:08:26.391Z)
Latitude
-0.00008°
Longitude
165.45545°
Altitude
548.503 km
Speed
7.589 km/s
True Right ascension
03h 14m 45s
True Declination
0° 00' 00"
Sunlit
Object was in daylight at TLE epoch
Visualization TLE readout
Latitude
49.62254°
Longitude
-138.39741°
Altitude
551.746 km
Speed
7.593 km/s
Apparent Right ascension
04h 30m 42s
Apparent Declination
8° 47' 39"
Sunlit
Object is in daylight
Visualization observer readout
Local Sidereal Time
14:16:00
Azimuth
319.646° NNW
Elevation
-32.185°
Doppler factor
1
Orbital elements
Apogee altitude
548.982 km
Perigee altitude
545.982 km
Semi-major axis
6,925.619 km
Eccentricity
0.0002166
Inclination
53.059°
RAAN
48.6891°
Arg. of periapsis
106.027°
True anomaly
254.07183°
Mean anomaly
254.0957°
Eccentric anomaly
254.08377°
Mean motion
3.76578 °/min
BSTAR
0.0001085
Orbital period
95.6 mins
Loading maneuver chart data...
Loading SW <> Apogee altitude chart data...
Loading historical data...
Loading historical data...
Loading historical data...
Loading historical data...
Loading historical data...
Loading historical data...
Loading historical data...

STARLINK-1583 Visibility forecast

Observer location: undefined°, undefined°

Span
Click to sort rows by Start time (UTC) header in descending order
Start Az.
Max El. time (UTC)
Max El. Az.
Max El.
End time (UTC)
End Az.
6 mins2025-05-09 20:17:13.339Z195.068° SSW2025-05-09 20:20:13.339Z139.416° SSE29.839°2025-05-09 20:23:13.339Z72.765° E
6 mins2025-05-09 21:57:13.339Z269.438° W2025-05-09 22:00:13.339Z339.593° N30.042°2025-05-09 22:03:13.339Z33.976° NE
6 mins2025-05-10 02:59:13.339Z330.992° NNW2025-05-10 03:02:13.339Z49.96° ENE31.54°2025-05-10 03:05:13.339Z100.309° ESE
5 mins2025-05-10 04:39:13.339Z274.796° WNW2025-05-10 04:41:13.339Z227.655° WSW27.145°2025-05-10 04:44:13.339Z170.695° S
|